Retour au catalogue

STARLINK-34389

ActifCommunicationsVLEO
NORAD 64351·PAYLOAD·🇺🇸 United States

Lancé Jun 13, 2025 depuis Vandenberg Space Force Base

Loading…

Prochains Passages (prochaines 24 heures)

TLE

FraisSource: CelesTrak SupGP

Époque: Sep 14, 2026, 21:39 UTC

1 64351C 25126H   26257.90256944  .00075782  00000+0  26366-2 0  2576
2 64351  69.9998 275.7921 0003316 266.9706 102.3206 15.29535822    10

Suivez STARLINK-34389 en temps réel avec AllMySat

Download on the App Store